OpenBCM V1.13 (Linux)

Packet Radio Mailbox

DB0FHN

[JN59NK Nuernberg]

 Login: GUEST





  
I6KZR  > KEPLER   09.01.03 19:42l 71 Lines 2382 Bytes #999 (0) @ WW
BID : 1686_I6KZR
Read: DB0FHN GUEST
Subj: R:030109/1632z @:IK6WID.IMAR.ITA.EU $:1686_I6KZR Sally 3.2.1
Path: DB0FHN<DB0RGB<DB0MRW<DB0ERF<DB0FBB<DB0GOS<ON0AR<ON0AR<GB7YKS
Sent: 030109/1537Z @:GB7YKS.#19.GBR.EU #:51941 [Barnsley Telnet] $:1686_I6KZR
From: I6KZR@GB7YKS.#19.GBR.EU
To  : KEPLER@WW
Date: gio, 01 gen 2003 16:32:30 CET

From: I6KZR@IK6WID.#AP.IMAR.ITA.EU (Renzo)
To: KEPLER@WW
Subject: 2L Keplerian Elements #009


Inviato da: I6KZR@GB7YKS.#19.GBR.EU        

OSCAR 7
1 07530U 74089B   03006.91531054 -.00000029 +00000-0 +10000-3 0 01471
2 07530 101.7689 055.0918 0012324 160.1961 199.9593 12.53563391287845
GOES 2
1 10061U 77048A   03005.42586557 -.00000270  00000-0  00000+0 0   466
2 10061  14.1214  13.7857 0013992 196.1981 163.7785  0.99397401 38395
GOES 3
1 10953U 78062A   03008.05164982 -.00000093  00000-0  00000+0 0  8842
2 10953  13.3912  17.5505 0004482 339.1544  20.8530  1.00277851 43083
GOES 6
1 14050U 83041A   03008.17061170  .00000059  00000-0  10000-3 0  4117
2 14050  10.3474  35.7445 0002853 353.5068   6.5190  1.00289581130220
OSCAR 10
1 14129U 83058B   03003.75114346 00000-0  00000+0 0  8441
2 23839   0.0486  10.8038 0002002 280.8115 165.8863  1.00271348 24799
ASTRA 1F
1 23842U 96021A   02364.00000000  .00000128  00000-0  10000-3 0  5555
2 23842   0.0122 319.8851 0002995  65.1991  92.4014  1.00273184 24616
JAS 2
1 24278U 96046B   03006.94279789 -.00000039 +00000-0 -19303-5 0 05533
2 24278 098.5312 163.9646 0350823 327.1487 030.8273 13.52867628315540
UNAMSAT
1 24305U 96052B   03007.30765233  .00000205  00000-0  20364-3 0  6526
2 24305  82.9329 294.0327 0030818 324.6640  35.2463 13.73446690317682
INMARSAT 3-F2
1 24307U 96053A   03008.22650979 -.00000118  00000-0  00000+0 0   687
2 24307   0.0526  10.9512 0004588 273.8181 248.5908  1.00270560 23208
HOT BIRD 2
1 24665U 96067A   02364.09542247  .00000096  00000-0  10000-3 0  3374
2 24665   0.0380 203.9859 0010678  49.4036 252.3771  1.00274592 22753
INMARSAT 3-F3
1 24674U 96070A   03008.40988878  .00000046  00000-0  10000-3 0  9644
2 24674   0.0576   7.4473 0004101 268.7339 157.0434  1.00274721 22172
GOES 10 2761

Frase del giorno:
Nel migliore dei casi la donna e' una contraddizione (Alexander Pope)

73 Ciao a tutti Renzo.

li, giovedi' 09 gennaio 2003 16:30 (+1.00) CET

  /___/____/
 /   /    /
     ||
     || I6KZR  Fermo, Italy
     || BBS    I6KZR@IK6WID.IMAR.ITA.EU
     || e_mail i6kzr@i6kzr.it
     || web http://www.i6kzr.it
     || TCPip: 44.134.243.003

Messaggio inviato con Sally V3.2.116 software packet per Windows 32bit.

<TO="I6KZR@IK6WID.#AP.IMAR.ITA.EU" TITLE="2L Keplerian Elements #009" .
CONTENT="">



Read previous mail | Read next mail


 09.06.2026 17:37:02lGo back Go up